CW5324 Weather Reports


time (UTC)temp
C
wind
direction
speed
KPH
gust
KPH
rain 1hr
cm
rain 24hr
cm
rain mn
cm
humidity
%
barometer
mb
20260504174515 22 0.0 0.0 0.00 0.00 0.00 25
20260504173520 21 0.0 0.0 0.00 0.00 0.00 26
20260504172520 21 0.0 0.0 0.00 0.00 0.00 28
20260504171521 21 0.0 0.0 0.00 0.00 0.00 26
20260504170520 21 0.0 0.0 0.00 0.00 0.00 26
20260504150520 18 0.0 0.0 0.00 0.00 0.00 29
20260504140520 17 0.0 0.0 0.00 0.00 0.00 36
20260504130540 15 0.0 0.0 0.00 0.00 0.00 44
20260504110515 8 0.0 0.0 0.00 0.00 0.00 60
20260504100520 7 0.0 0.0 0.00 0.00 0.00 62
20260504081520 7 0.0 0.0 0.00 0.00 0.00 64
20260504080520 7 0.0 0.0 0.00 0.00 0.00 64
20260504050540 8 0.0 0.0 0.00 0.00 0.00 51
20260504045520 8 0.0 0.0 0.00 0.00 0.00 53
20260504044520 8 0.0 0.0 0.00 0.00 0.00 53
20260504043541 8 0.0 0.0 0.00 0.00 0.00 52
20260504042520 8 0.0 0.0 0.00 0.00 0.00 51
20260504041517 9 0.0 0.0 0.00 0.00 0.00 51
20260504040515 9 0.0 0.0 0.00 0.00 0.00 52
20260504035521 9 0.0 0.0 0.00 0.00 0.00 48
20260504034522 9 0.0 0.0 0.00 0.00 0.00 48
20260504033521 9 0.0 0.0 0.00 0.00 0.00 47
20260504032516 10 0.0 0.0 0.00 0.00 0.00 44
20260504031522 10 0.0 0.0 0.00 0.00 0.00 43
20260504030521 10 0.0 0.0 0.00 0.00 0.00 42
20260504025522 10 0.0 0.0 0.00 0.00 0.00 40
20260504024522 10 0.0 0.0 0.00 0.00 0.00 39
20260504023542 10 0.0 0.0 0.00 0.00 0.00 38
20260504022601 10 0.0 0.0 0.00 0.00 0.00 36
20260504021516 11 0.0 0.0 0.00 0.00 0.00 36
20260504020542 11 0.0 0.0 0.00 0.00 0.00 34
20260504015521 11 0.0 0.0 0.00 0.00 0.00 32
20260504014522 11 0.0 0.0 0.00 0.00 0.00 32
20260504013522 11 0.0 0.0 0.00 0.00 0.00 30
20260504012522 11 0.0 0.0 0.00 0.00 0.00 30
20260504011517 11 0.0 0.0 0.00 0.00 0.00 29
20260504010516 11 0.0 0.0 0.00 0.00 0.00 29
20260504005521 11 0.0 0.0 0.00 0.00 0.00 28
20260504004521 11 0.0 0.0 0.00 0.00 0.00 29
20260504003522 11 0.0 0.0 0.00 0.00 0.00 28
20260504002522 11 0.0 0.0 0.00 0.00 0.00 29
20260504001521 12 0.0 0.0 0.00 0.00 0.00 31
20260504000516 12 0.0 0.0 0.00 0.00 0.00 33
20260503235556 12 0.0 0.0 0.00 0.00 0.00 32
20260503234522 13 0.0 0.0 0.00 0.00 0.00 30
20260503233521 13 0.0 0.0 0.00 0.00 0.00 30
20260503232521 13 0.0 0.0 0.00 0.00 0.00 30
20260503231521 13 0.0 0.0 0.00 0.00 0.00 30
20260503230521 13 0.0 0.0 0.00 0.00 0.00 30
20260503225516 13 0.0 0.0 0.00 0.00 0.00 30
20260503224516 13 0.0 0.0 0.00 0.00 0.00 29
20260503223542 13 0.0 0.0 0.00 0.00 0.00 29
20260503222541 13 0.0 0.0 0.00 0.00 0.00 30
20260503221521 12 0.0 0.0 0.00 0.00 0.00 31
20260503220520 12 0.0 0.0 0.00 0.00 0.00 31
20260503215521 12 0.0 0.0 0.00 0.00 0.00 31
20260503214516 12 0.0 0.0 0.00 0.00 0.00 32
20260503213521 12 0.0 0.0 0.00 0.00 0.00 31
20260503212521 13 0.0 0.0 0.00 0.00 0.00 30
20260503211541 12 0.0 0.0 0.00 0.00 0.00 31
20260503210521 12 0.0 0.0 0.00 0.00 0.00 31
20260503205522 12 0.0 0.0 0.00 0.00 0.00 31
20260503204521 12 0.0 0.0 0.00 0.00 0.00 30
20260503203516 12 0.0 0.0 0.00 0.00 0.00 31
20260503202522 12 0.0 0.0 0.00 0.00 0.00 30
20260503201521 12 0.0 0.0 0.00 0.00 0.00 33
20260503200542 12 0.0 0.0 0.00 0.00 0.00 32
20260503195522 12 0.0 0.0 0.00 0.00 0.00 31
20260503194521 12 0.0 0.0 0.00 0.00 0.00 31
20260503193521 12 0.0 0.0 0.00 0.00 0.00 31
20260503192516 12 0.0 0.0 0.00 0.00 0.00 31
20260503191522 12 0.0 0.0 0.00 0.00 0.00 31
20260503190541 12 0.0 0.0 0.00 0.00 0.00 32
20260503185521 12 0.0 0.0 0.00 0.00 0.00 33
20260503184521 12 0.0 0.0 0.00 0.00 0.00 33
20260503183521 12 0.0 0.0 0.00 0.00 0.00 35
20260503182516 12 0.0 0.0 0.00 0.00 0.00 33
20260503181516 12 0.0 0.0 0.00 0.00 0.00 33
20260503180542 12 0.0 0.0 0.00 0.00 0.00 34
20260503175521 12 0.0 0.0 0.00 0.00 0.00 34